Aérodrome :
LOGIN :

S'inscrire | Disclaimer

   EN    FR    IT 

 










Légende :    VFR   VFR Marginal   IFR   IFR Intensif   IFR Très Intensif
Visi : 
Plafond : 
>= 8 km
>= 3000ft
5 à 8 km
1000 à 3000 ft
1500m à 5 km
500 à 1000 ft
800 à 1500m
200 à 500 ft
< 800m
< 200 ft
Symboles :   Orages  Brouillard  Fortes neiges  Fortes précipitations  Vent > 20 kt
SIGMETs :   Divers  Orages  Givrage  Turbulence  Onde Orograph.  Cendres Volcan.






- Altitude de l'aérodrome : 19 ft
- Code IATA : LCY


EGLC - London City

DERNIER METAR :
  • 220120Z AUTO 04004KT 330V090 9999 SCT024 04/M00 Q1026

METARs EXPIRÉS :
  • 220050Z AUTO 05005KT 360V090 9999 NCD 05/M00 Q1026
  • 220020Z AUTO 05005KT 320V110 9999 NCD 05/M00 Q1026
  • 212350Z AUTO 05006KT 9999 NCD 05/00 Q1026
  • 212320Z AUTO 05007KT 9999 NCD 06/00 Q1026

Prévision TAF périmée.
ATIS : +44 20 7646 0224



MET'MAP, la Météo Aéronautique d'un coup d'oeil ! - Copyright ORBIFLY Décembre 2007 - Disclaimer

ORBIFLY MET'MAP TEAM :

Programmation & Développement : Alexandra Zaïnal
Sur une idée originale de : Baudouin d'Aumeries
Assistance à la programmation : Marc-Olivier Méhu
Soutien technique & logistique : Manuel Goepfert

Contact : metmap@orbifly.com




SOURCES & CREDITS :

   NOAA